Regional Weather Roundup
Issued by NWS Cleveland, OH

Home | Current Version | Previous Version | Graphics & Text | Print | Product List | Glossary On
Versions: 1 2 3 4 5 6 7 8 9 10 11 12 13 14 15 16 17 18 19 20 21 22 23 24 25 26 27 28 29 30 31 32 33 34 35 36 37 38 39 40 41 42 43 44 45 46 47 48 49 50
000
ASUS41 KCLE 161510
RWRCLE
OHIO REGIONAL WEATHER ROUNDUP
NATIONAL WEATHER SERVICE WILMINGTON, OH
1100 AM EDT WED APR 16 2014

NOTE: "FAIR" INDICATES FEW OR NO CLOUDS BELOW 12,000 FEET WITH NO
SIGNIFICANT WEATHER AND/OR OBSTRUCTIONS TO VISIBILITY.

OHZ001>008-015>018-024>027-034-035-043-044-161600-
   NORTHWEST OHIO

CITY           SKY/WX    TMP DP  RH WIND       PRES   REMARKS
DEFIANCE       SUNNY     36  13  38 SE7       30.44R
FINDLAY        SUNNY     34  15  46 SE12      30.43S WCI  25
TOLEDO EXPRESS SUNNY     35  12  38 E6        30.45R
TOLEDO METCALF SUNNY     36  13  38 SE7       30.46R
LIMA           SUNNY     36  14  40 SE9       30.42S
$$

OHZ009>014-019>023-028>033-038-089-161600-
   NORTHEAST OHIO

CITY           SKY/WX    TMP DP  RH WIND       PRES   REMARKS
CLE-HOPKINS    MOSUNNY   34  14  43 VRB3      30.50R
CLE-LAKEFRONT  SUNNY     35  15  44 VRB3      30.48R
CUY CO. ARPT   MOSUNNY   36  10  35 NW5       30.48R
LORAIN-ELYRIA  SUNNY     35  17  47 E5        30.48R
ASHTABULA      SUNNY     31  14  49 CALM      30.49R
AKRON-CANTON   MOSUNNY   36  19  51 SE6       30.46R
WOOSTER        PTSUNNY   31  19  61 E6        30.46S WCI  25
MANSFIELD      SUNNY     31  18  58 E6        30.43R WCI  25
YOUNGSTOWN     MOSUNNY   31  12  45 CALM      30.47R
$$

OHZ042-051>053-060>062-070>072-077>081-161600-
  SOUTHWEST OHIO

CITY           SKY/WX    TMP DP  RH WIND       PRES   REMARKS
CINC-COVINGTON PTSUNNY   38  15  39 E13       30.40S
CINC-LUNKEN    SUNNY     39  14  36 NE12      30.44S
HAMILTON       SUNNY     40  15  36 E14       30.43F
DAYTON         MOSUNNY   37  14  38 E8        30.42S
WRIGHT-PAT AFB SUNNY     37  12  35 E9        30.42F
DAYTON GENERAL SUNNY     37  16  42 E10       30.40F
WILMINGTON     SUNNY     35  15  44 E10       30.42S WCI  27
$$

OHZ036-037-039>041-045>050-054>059-063>069-073>076-082>088-161600-
  CENTRAL AND SOUTHEAST OHIO

CITY           SKY/WX    TMP DP  RH WIND       PRES   REMARKS
COLUMBUS       MOSUNNY   37  18  46 E7        30.44S
OSU AIRPORT    SUNNY     36  17  46 E6        30.43F
BOLTON FIELD   SUNNY     36  18  48 E9        30.44S
RICKENBACK AFB SUNNY     38  15  39 E7        30.44F
NEWARK         SUNNY     36  19  50 VRB6      30.44S
MARION         SUNNY     32  18  56 SE8       30.44S WCI  25
LANCASTER      SUNNY     37  19  48 VRB6      30.45R
ZANESVILLE     MOSUNNY   34  20  56 MISG      30.46R
NEW PHILLY     MOSUNNY   34  17  50 VRB5      30.48R WCI  30
$$



USA.gov is the U.S. government's official web portal to all federal, state and local government web resources and services.